STARLINK-1816 (46714 NORAD) Tracking and Keplerian Element Data

This shows tracking and keplerian element data for the satellite.

Feedback or suggestion? Click here.




ElementValue
Catalog46714
NameSTARLINK-1816
Epoch Orbit180
Epoch Day327.91667824
Epoch Year2020
RAAN295.0133
Inclination53.0557
Eccentricity0.0001131
Argument of Perigee95.6002
Mean Anonmoly80.8585
Mean Motion15.62768307
Decay Rate0.00078615
L11 46714U 20073AW 20327.91667824 .00078615 00000-0 85563-3 0 9998
L22 46714 53.0557 295.0133 0001131 95.6002 80.8585 15.62768307 1808

Live tracking and technical data element details for STARLINK-1816 (NORAD 46714). STARLINK-1816 can be tracked NOW for your location showing map with azimuth and elevation plus other details from your city location.

Track the satellite on the map from your city or location and see movement details for azimuth, elevation, latitude, longitude, range, height, and movement on the map or in text.







IsCatalogInMostPopularTable: catalog: 46714, numindb: 7
Update: records affected: 1



GetName: 46714 STARLINK-1816

Hit Count: updated at: Tue, 24 Nov 2020 12:20:26 GMT